TimePST,TemperatureF,Dew PointF,Humidity,Sea Level PressureIn,VisibilityMPH,Wind Direction,Wind SpeedMPH,Gust SpeedMPH,PrecipitationIn,Events,Conditions,WindDirDegrees,DateUTC
12:53 AM,34.0,28.0,79,30.30,8.0,Calm,Calm,-,N/A,,Clear,0,2012-11-13 08:53:00
1:53 AM,37.9,30.9,76,30.29,7.0,Calm,Calm,-,N/A,,Clear,0,2012-11-13 09:53:00
2:53 AM,33.1,28.0,82,30.28,7.0,Calm,Calm,-,N/A,,Clear,0,2012-11-13 10:53:00
3:53 AM,30.0,28.0,92,30.28,5.0,Calm,Calm,-,N/A,,Clear,0,2012-11-13 11:53:00
4:53 AM,30.9,28.9,92,30.28,5.0,Calm,Calm,-,N/A,,Clear,0,2012-11-13 12:53:00
5:53 AM,30.9,27.0,85,30.28,5.0,Calm,Calm,-,N/A,,Clear,0,2012-11-13 13:53:00
6:53 AM,32.0,27.0,82,30.29,4.0,Calm,Calm,-,N/A,,Haze,0,2012-11-13 14:53:00
7:53 AM,39.0,33.1,79,30.29,5.0,Calm,Calm,-,N/A,,Haze,0,2012-11-13 15:53:00
8:53 AM,46.9,35.1,63,30.29,6.0,Calm,Calm,-,N/A,,Haze,0,2012-11-13 16:53:00
9:53 AM,53.1,35.1,50,30.28,5.0,Calm,Calm,-,N/A,,Haze,0,2012-11-13 17:53:00
10:53 AM,-9999,-9999,N/A,30.24,-9999.0,North,-9999.0,-,N/A,,Unknown,0,2012-11-13 18:53:00
11:53 AM,61.0,34.0,36,30.21,8.0,Calm,Calm,-,N/A,,Clear,0,2012-11-13 19:53:00
12:53 PM,64.0,34.0,33,30.17,8.0,NW,5.8,-,N/A,,Unknown,320,2012-11-13 20:53:00
1:53 PM,64.9,34.0,32,30.14,9.0,SSE,3.5,-,N/A,,Clear,150,2012-11-13 21:53:00
2:53 PM,64.9,33.1,31,30.14,8.0,Calm,Calm,-,N/A,,Clear,0,2012-11-13 22:53:00
3:53 PM,66.0,34.0,30,30.13,8.0,Calm,Calm,-,N/A,,Clear,0,2012-11-13 23:53:00
4:53 PM,60.1,35.1,39,30.13,8.0,Calm,Calm,-,N/A,,Clear,0,2012-11-14 00:53:00
5:53 PM,50.0,36.0,59,30.14,8.0,Calm,Calm,-,N/A,,Clear,0,2012-11-14 01:53:00
6:53 PM,46.9,36.0,66,30.14,7.0,Calm,Calm,-,N/A,,Clear,0,2012-11-14 02:53:00
7:53 PM,42.1,30.9,65,30.14,7.0,Calm,Calm,-,N/A,,Clear,0,2012-11-14 03:53:00
8:53 PM,42.1,30.0,62,30.14,7.0,Calm,Calm,-,N/A,,Clear,0,2012-11-14 04:53:00
9:53 PM,41.0,34.0,76,30.14,6.0,Calm,Calm,-,N/A,,Haze,0,2012-11-14 05:53:00
10:53 PM,39.9,34.0,79,30.14,6.0,ENE,6.9,-,N/A,,Haze,60,2012-11-14 06:53:00
11:53 PM,39.0,34.0,82,30.16,5.0,East,3.5,-,N/A,,Haze,80,2012-11-14 07:53:00